Year,Month,Day,Hour,Minute,Value (Times are PST for temperature in C)
2010,09,28,00,00,15.00
2010,09,28,00,01,15.00
2010,09,28,00,02,15.00
2010,09,28,00,03,15.00
2010,09,28,00,04,15.00
2010,09,28,00,05,15.00
2010,09,28,00,06,15.00
2010,09,28,00,07,15.00
2010,09,28,00,08,15.00
2010,09,28,00,09,15.00
2010,09,28,00,10,15.00
2010,09,28,00,11,14.90
2010,09,28,00,12,14.90
2010,09,28,00,13,14.80
2010,09,28,00,14,14.80
2010,09,28,00,15,14.80
2010,09,28,00,16,14.70
2010,09,28,00,17,14.70
2010,09,28,00,18,14.70
2010,09,28,00,19,14.60
2010,09,28,00,20,14.60
2010,09,28,00,21,14.50
2010,09,28,00,22,14.50
2010,09,28,00,23,14.50
2010,09,28,00,24,14.50
2010,09,28,00,25,14.50
2010,09,28,00,26,14.50
2010,09,28,00,27,14.50
2010,09,28,00,28,14.50
2010,09,28,00,29,14.50
2010,09,28,00,30,14.50
2010,09,28,00,31,14.50
2010,09,28,00,32,14.50
2010,09,28,00,33,14.50
2010,09,28,00,34,14.50
2010,09,28,00,35,14.50
2010,09,28,00,36,14.50
2010,09,28,00,37,14.50
2010,09,28,00,38,14.50
2010,09,28,00,39,14.50
2010,09,28,00,40,14.50
2010,09,28,00,41,14.50
2010,09,28,00,42,14.50
2010,09,28,00,43,14.60
2010,09,28,00,44,14.60
2010,09,28,00,45,14.60
2010,09,28,00,46,14.60
2010,09,28,00,47,14.60
2010,09,28,00,48,14.60
2010,09,28,00,49,14.60
2010,09,28,00,50,14.60
2010,09,28,00,51,14.60
2010,09,28,00,52,14.60
2010,09,28,00,53,14.60
2010,09,28,00,54,14.60
2010,09,28,00,55,14.60
2010,09,28,00,56,14.60
2010,09,28,00,57,14.60
2010,09,28,00,58,14.60
2010,09,28,00,59,14.60
2010,09,28,01,00,14.60
2010,09,28,01,01,14.60
2010,09,28,01,02,14.60
2010,09,28,01,03,14.60
2010,09,28,01,04,14.60
2010,09,28,01,05,14.60
2010,09,28,01,06,14.60
2010,09,28,01,07,14.60
2010,09,28,01,08,14.60
2010,09,28,01,09,14.50
2010,09,28,01,10,14.50
2010,09,28,01,11,14.50
2010,09,28,01,12,14.50
2010,09,28,01,13,14.50
2010,09,28,01,14,14.50
2010,09,28,01,15,14.50
2010,09,28,01,16,14.50
2010,09,28,01,17,14.50
2010,09,28,01,18,14.50
2010,09,28,01,19,14.60
2010,09,28,01,20,14.60
2010,09,28,01,21,14.60
2010,09,28,01,22,14.60
2010,09,28,01,23,14.50
2010,09,28,01,24,14.50
2010,09,28,01,25,14.50
2010,09,28,01,26,14.40
2010,09,28,01,27,14.40
2010,09,28,01,28,14.30
2010,09,28,01,29,14.30
2010,09,28,01,30,14.30
2010,09,28,01,31,14.30
2010,09,28,01,32,14.30
2010,09,28,01,33,14.30
2010,09,28,01,34,14.30
2010,09,28,01,35,14.30
2010,09,28,01,36,14.30
2010,09,28,01,37,14.30
2010,09,28,01,38,14.30
2010,09,28,01,39,14.40
2010,09,28,01,40,14.40
2010,09,28,01,41,14.30
2010,09,28,01,42,14.30
2010,09,28,01,43,14.30
2010,09,28,01,44,14.30
2010,09,28,01,45,14.30
2010,09,28,01,46,14.30
2010,09,28,01,47,14.30
2010,09,28,01,48,14.30
2010,09,28,01,49,14.20
2010,09,28,01,50,14.20
2010,09,28,01,51,14.20
2010,09,28,01,52,14.20
2010,09,28,01,53,14.20
2010,09,28,01,54,14.20
2010,09,28,01,55,14.20
2010,09,28,01,56,14.20
2010,09,28,01,57,14.20
2010,09,28,01,58,14.20
2010,09,28,01,59,14.20
2010,09,28,02,00,14.20
2010,09,28,02,01,14.20
2010,09,28,02,02,14.30
2010,09,28,02,03,14.30
2010,09,28,02,04,14.30
2010,09,28,02,05,14.30
2010,09,28,02,06,14.30
2010,09,28,02,07,14.30
2010,09,28,02,08,14.30
2010,09,28,02,09,14.30
2010,09,28,02,10,14.30
2010,09,28,02,11,14.30
2010,09,28,02,12,14.30
2010,09,28,02,13,14.30
2010,09,28,02,14,14.40
2010,09,28,02,15,14.40
2010,09,28,02,16,14.40
2010,09,28,02,17,14.40
2010,09,28,02,18,14.40
2010,09,28,02,19,14.40
2010,09,28,02,20,14.40
2010,09,28,02,21,14.40
2010,09,28,02,22,14.40
2010,09,28,02,23,14.40
2010,09,28,02,24,14.40
2010,09,28,02,25,14.40
2010,09,28,02,26,14.40
2010,09,28,02,27,14.40
2010,09,28,02,28,14.40
2010,09,28,02,29,14.50
2010,09,28,02,30,14.50
2010,09,28,02,31,14.50
2010,09,28,02,32,14.60
2010,09,28,02,33,14.60
2010,09,28,02,34,14.60
2010,09,28,02,35,14.60
2010,09,28,02,36,14.70
2010,09,28,02,37,14.70
2010,09,28,02,38,14.70
2010,09,28,02,39,14.70
2010,09,28,02,40,14.70
2010,09,28,02,41,14.70
2010,09,28,02,42,14.70
2010,09,28,02,43,14.70
2010,09,28,02,44,14.70
2010,09,28,02,45,14.70
2010,09,28,02,46,14.70
2010,09,28,02,47,14.60
2010,09,28,02,48,14.70
2010,09,28,02,49,14.70
2010,09,28,02,50,14.70
2010,09,28,02,51,14.70
2010,09,28,02,52,14.70
2010,09,28,02,53,14.70
2010,09,28,02,54,14.70
2010,09,28,02,55,14.70
2010,09,28,02,56,14.70
2010,09,28,02,57,14.70
2010,09,28,02,58,14.70
2010,09,28,02,59,14.70
2010,09,28,03,00,14.70
2010,09,28,03,01,14.70
2010,09,28,03,02,14.70
2010,09,28,03,03,14.70
2010,09,28,03,04,14.80
2010,09,28,03,05,14.80
2010,09,28,03,06,14.80
2010,09,28,03,07,14.80
2010,09,28,03,08,14.80
2010,09,28,03,09,14.80
2010,09,28,03,10,14.80
2010,09,28,03,11,14.90
2010,09,28,03,12,14.90
2010,09,28,03,13,14.90
2010,09,28,03,14,15.00
2010,09,28,03,15,15.00
2010,09,28,03,16,15.00
2010,09,28,03,17,15.00
2010,09,28,03,18,15.00
2010,09,28,03,19,15.00
2010,09,28,03,20,15.00
2010,09,28,03,21,15.00
2010,09,28,03,22,15.00
2010,09,28,03,23,15.00
2010,09,28,03,24,15.00
2010,09,28,03,25,15.00
2010,09,28,03,26,15.00
2010,09,28,03,27,15.00
2010,09,28,03,28,15.00
2010,09,28,03,29,15.00
2010,09,28,03,30,15.00
2010,09,28,03,31,15.00
2010,09,28,03,32,15.00
2010,09,28,03,33,15.00
2010,09,28,03,34,15.00
2010,09,28,03,35,15.00
2010,09,28,03,36,15.00
2010,09,28,03,37,15.00
2010,09,28,03,38,15.10
2010,09,28,03,39,15.10
2010,09,28,03,40,15.10
2010,09,28,03,41,15.10
2010,09,28,03,42,15.10
2010,09,28,03,43,15.10
2010,09,28,03,44,15.10
2010,09,28,03,45,15.10
2010,09,28,03,46,15.10
2010,09,28,03,47,15.20
2010,09,28,03,48,15.20
2010,09,28,03,49,15.20
2010,09,28,03,50,15.20
2010,09,28,03,51,15.20
2010,09,28,03,52,15.20
2010,09,28,03,53,15.20
2010,09,28,03,54,15.20
2010,09,28,03,55,15.20
2010,09,28,03,56,15.20
2010,09,28,03,57,15.20
2010,09,28,03,58,15.20
2010,09,28,03,59,15.20
2010,09,28,04,00,15.20
2010,09,28,04,01,15.20
2010,09,28,04,02,15.20
2010,09,28,04,03,15.20
2010,09,28,04,04,15.20
2010,09,28,04,05,15.20
2010,09,28,04,06,15.20
2010,09,28,04,07,15.30
2010,09,28,04,08,15.30
2010,09,28,04,09,15.30
2010,09,28,04,10,15.30
2010,09,28,04,11,15.30
2010,09,28,04,12,15.30
2010,09,28,04,13,15.30
2010,09,28,04,14,15.30
2010,09,28,04,15,15.30
2010,09,28,04,16,15.30
2010,09,28,04,17,15.30
2010,09,28,04,18,15.30
2010,09,28,04,19,15.30
2010,09,28,04,20,15.30
2010,09,28,04,21,15.30
2010,09,28,04,22,15.30
2010,09,28,04,23,15.30
2010,09,28,04,24,15.30
2010,09,28,04,25,15.30
2010,09,28,04,26,15.30
2010,09,28,04,27,15.30
2010,09,28,04,28,15.30
2010,09,28,04,29,15.40
2010,09,28,04,30,15.40
2010,09,28,04,31,15.40
2010,09,28,04,32,15.40
2010,09,28,04,33,15.40
2010,09,28,04,34,15.40
2010,09,28,04,35,15.40
2010,09,28,04,36,15.40
2010,09,28,04,37,15.40
2010,09,28,04,38,15.40
2010,09,28,04,39,15.40
2010,09,28,04,40,15.40
2010,09,28,04,41,15.40
2010,09,28,04,42,15.40
2010,09,28,04,43,15.40
2010,09,28,04,44,15.40
2010,09,28,04,45,15.40
2010,09,28,04,46,15.40
2010,09,28,04,47,15.40
2010,09,28,04,48,15.40
2010,09,28,04,49,15.40
2010,09,28,04,50,15.40
2010,09,28,04,51,15.40
2010,09,28,04,52,15.40
2010,09,28,04,53,15.40
2010,09,28,04,54,15.40
2010,09,28,04,55,15.40
2010,09,28,04,56,15.40
2010,09,28,04,57,15.40
2010,09,28,04,58,15.40
2010,09,28,04,59,15.40
2010,09,28,05,00,15.40
2010,09,28,05,01,15.40
2010,09,28,05,02,15.40
2010,09,28,05,03,15.40
2010,09,28,05,04,15.40
2010,09,28,05,05,15.40
2010,09,28,05,06,15.40
2010,09,28,05,07,15.40
2010,09,28,05,08,15.40
2010,09,28,05,09,15.30
2010,09,28,05,10,15.30
2010,09,28,05,11,15.40
2010,09,28,05,12,15.40
2010,09,28,05,13,15.30
2010,09,28,05,14,15.40
2010,09,28,05,15,15.40
2010,09,28,05,16,15.30
2010,09,28,05,17,15.40
2010,09,28,05,18,15.30
2010,09,28,05,19,15.40
2010,09,28,05,20,15.40
2010,09,28,05,21,15.40
2010,09,28,05,22,15.40
2010,09,28,05,23,15.40
2010,09,28,05,24,15.40
2010,09,28,05,25,15.40
2010,09,28,05,26,15.40
2010,09,28,05,27,15.40
2010,09,28,05,28,15.40
2010,09,28,05,29,15.40
2010,09,28,05,30,15.50
2010,09,28,05,31,15.50
2010,09,28,05,32,15.50
2010,09,28,05,33,15.50
2010,09,28,05,34,15.40
2010,09,28,05,35,15.40
2010,09,28,05,36,15.40
2010,09,28,05,37,15.40
2010,09,28,05,38,15.40
2010,09,28,05,39,15.40
2010,09,28,05,40,15.40
2010,09,28,05,41,15.40
2010,09,28,05,42,15.30
2010,09,28,05,43,15.30
2010,09,28,05,44,15.30
2010,09,28,05,45,15.30
2010,09,28,05,46,15.30
2010,09,28,05,47,15.30
2010,09,28,05,48,15.30
2010,09,28,05,49,15.30
2010,09,28,05,50,15.30
2010,09,28,05,51,15.30
2010,09,28,05,52,15.30
2010,09,28,05,53,15.30
2010,09,28,05,54,15.30
2010,09,28,05,55,15.30
2010,09,28,05,56,15.30
2010,09,28,05,57,15.30
2010,09,28,05,58,15.30
2010,09,28,05,59,15.30
2010,09,28,06,00,15.30
2010,09,28,06,01,15.30
2010,09,28,06,02,15.30
2010,09,28,06,03,15.30
2010,09,28,06,04,15.30
2010,09,28,06,05,15.30
2010,09,28,06,06,15.30
2010,09,28,06,07,15.30
2010,09,28,06,08,15.40
2010,09,28,06,09,15.40
2010,09,28,06,10,15.40
2010,09,28,06,11,15.40
2010,09,28,06,12,15.40
2010,09,28,06,13,15.50
2010,09,28,06,14,15.50
2010,09,28,06,15,15.50
2010,09,28,06,16,15.60
2010,09,28,06,17,15.60
2010,09,28,06,18,15.60
2010,09,28,06,19,15.60
2010,09,28,06,20,15.60
2010,09,28,06,21,15.60
2010,09,28,06,22,15.50
2010,09,28,06,23,15.50
2010,09,28,06,24,15.50
2010,09,28,06,25,15.40
2010,09,28,06,26,15.40
2010,09,28,06,27,15.40
2010,09,28,06,28,15.40
2010,09,28,06,29,15.40
2010,09,28,06,30,15.30
2010,09,28,06,31,15.30
2010,09,28,06,32,15.30
2010,09,28,06,33,15.30
2010,09,28,06,34,15.30
2010,09,28,06,35,15.20
2010,09,28,06,36,15.20
2010,09,28,06,37,15.20
2010,09,28,06,38,15.20
2010,09,28,06,39,15.20
2010,09,28,06,40,15.20
2010,09,28,06,41,15.20
2010,09,28,06,42,15.10
2010,09,28,06,43,15.10
2010,09,28,06,44,15.10
2010,09,28,06,45,15.10
2010,09,28,06,46,15.10
2010,09,28,06,47,15.10
2010,09,28,06,48,15.10
2010,09,28,06,49,15.10
2010,09,28,06,50,15.10
2010,09,28,06,51,15.10
2010,09,28,06,52,15.00
2010,09,28,06,53,15.00
2010,09,28,06,54,15.00
2010,09,28,06,55,15.00
2010,09,28,06,56,15.00
2010,09,28,06,57,15.00
2010,09,28,06,58,15.00
2010,09,28,06,59,15.10
2010,09,28,07,00,15.10
2010,09,28,07,01,15.10
2010,09,28,07,02,15.10
2010,09,28,07,03,15.10
2010,09,28,07,04,15.10
2010,09,28,07,05,15.00
2010,09,28,07,06,15.00
2010,09,28,07,07,15.00
2010,09,28,07,08,15.00
2010,09,28,07,09,15.00
2010,09,28,07,10,15.00
2010,09,28,07,11,15.00
2010,09,28,07,12,15.00
2010,09,28,07,13,15.00
2010,09,28,07,14,15.00
2010,09,28,07,15,15.00
2010,09,28,07,16,15.00
2010,09,28,07,17,15.00
2010,09,28,07,18,15.00
2010,09,28,07,19,15.00
2010,09,28,07,20,15.00
2010,09,28,07,21,15.00
2010,09,28,07,22,15.00
2010,09,28,07,23,15.00
2010,09,28,07,24,15.00
2010,09,28,07,25,15.00
2010,09,28,07,26,15.00
2010,09,28,07,27,15.00
2010,09,28,07,28,15.00
2010,09,28,07,29,15.00
2010,09,28,07,30,15.00
2010,09,28,07,31,15.00
2010,09,28,07,32,15.00
2010,09,28,07,33,15.00
2010,09,28,07,34,15.00
2010,09,28,07,35,15.00
2010,09,28,07,36,15.00
2010,09,28,07,37,15.00
2010,09,28,07,38,15.00
2010,09,28,07,39,15.00
2010,09,28,07,40,15.00
2010,09,28,07,41,15.00
2010,09,28,07,42,15.00
2010,09,28,07,43,15.00
2010,09,28,07,44,15.00
2010,09,28,07,45,15.00
2010,09,28,07,46,15.00
2010,09,28,07,47,15.00
2010,09,28,07,48,15.00
2010,09,28,07,49,15.00
2010,09,28,07,50,15.00
2010,09,28,07,51,15.00
2010,09,28,07,52,15.00
2010,09,28,07,53,15.00
2010,09,28,07,54,15.00
2010,09,28,07,55,15.00
2010,09,28,07,56,15.10
2010,09,28,07,58,15.20
2010,09,28,07,59,15.20
2010,09,28,08,19,15.10
2010,09,28,08,20,15.10
2010,09,28,08,21,15.10
2010,09,28,08,23,15.10
2010,09,28,08,25,15.10
2010,09,28,08,33,15.10
2010,09,28,08,34,15.10
2010,09,28,08,35,15.10
2010,09,28,08,36,15.10
2010,09,28,08,37,15.10
2010,09,28,08,38,15.10
2010,09,28,08,39,15.10
2010,09,28,08,40,15.10
2010,09,28,08,41,15.10
2010,09,28,08,42,15.10
2010,09,28,08,43,15.00
2010,09,28,08,44,15.00
2010,09,28,08,45,15.00
2010,09,28,08,46,15.00
2010,09,28,08,47,15.00
2010,09,28,08,48,15.00
2010,09,28,08,49,15.00
2010,09,28,08,50,15.00
2010,09,28,08,51,15.00
2010,09,28,08,52,15.00
2010,09,28,08,53,15.00
2010,09,28,08,54,15.00
2010,09,28,08,55,15.00
2010,09,28,08,56,15.00
2010,09,28,08,57,15.00
2010,09,28,08,58,15.10
2010,09,28,08,59,15.10
2010,09,28,09,00,15.10
2010,09,28,09,01,15.10
2010,09,28,09,02,15.10
2010,09,28,09,03,15.10
2010,09,28,09,04,15.20
2010,09,28,09,05,15.20
2010,09,28,09,06,15.20
2010,09,28,09,07,15.30
2010,09,28,09,08,15.30
2010,09,28,09,21,15.30
2010,09,28,09,22,15.30
2010,09,28,09,23,15.30
2010,09,28,09,24,15.30
2010,09,28,09,25,15.30
2010,09,28,09,26,15.30
2010,09,28,09,27,15.20
2010,09,28,09,28,15.20
2010,09,28,09,29,15.20
2010,09,28,09,30,15.20
2010,09,28,09,31,15.20
2010,09,28,09,32,15.20
2010,09,28,09,33,15.20
2010,09,28,09,34,15.20
2010,09,28,09,35,15.20
2010,09,28,09,36,15.20
2010,09,28,09,37,15.20
2010,09,28,09,38,15.20
2010,09,28,09,39,15.20
2010,09,28,09,40,15.20
2010,09,28,09,41,15.20
2010,09,28,09,42,15.10
2010,09,28,09,43,15.10
2010,09,28,09,44,15.10
2010,09,28,09,45,15.20
2010,09,28,09,46,15.20
2010,09,28,09,47,15.20
2010,09,28,09,48,15.20
2010,09,28,09,49,15.20
2010,09,28,09,50,15.20
2010,09,28,09,51,15.20
2010,09,28,09,52,15.20
2010,09,28,09,53,15.20
2010,09,28,09,54,15.30
2010,09,28,09,55,15.30
2010,09,28,09,56,15.30
2010,09,28,09,57,15.30
2010,09,28,09,58,15.20
2010,09,28,09,59,15.20
2010,09,28,10,00,15.10
2010,09,28,10,01,15.10
2010,09,28,10,02,15.10
2010,09,28,10,03,15.00
2010,09,28,10,04,15.10
2010,09,28,10,05,15.00
2010,09,28,10,06,15.00
2010,09,28,10,07,15.00
2010,09,28,10,08,15.00
2010,09,28,10,09,15.00
2010,09,28,10,10,15.00
2010,09,28,10,11,15.00
2010,09,28,10,12,15.00
2010,09,28,10,13,15.00
2010,09,28,10,14,15.00
2010,09,28,10,15,15.00
2010,09,28,10,16,15.00
2010,09,28,10,17,15.00
2010,09,28,10,18,15.00
2010,09,28,10,19,15.00
2010,09,28,10,20,15.00
2010,09,28,10,21,15.00
2010,09,28,10,22,15.00
2010,09,28,10,23,15.00
2010,09,28,10,24,15.00
2010,09,28,10,25,15.00
2010,09,28,10,26,15.00
2010,09,28,10,27,15.10
2010,09,28,10,28,15.10
2010,09,28,10,29,15.20
2010,09,28,10,30,15.20
2010,09,28,10,31,15.20
2010,09,28,10,32,15.30
2010,09,28,10,33,15.30
2010,09,28,10,34,15.30
2010,09,28,10,35,15.40
2010,09,28,10,36,15.40
2010,09,28,10,37,15.40
2010,09,28,10,38,15.40
2010,09,28,10,39,15.40
2010,09,28,10,40,15.50
2010,09,28,10,41,15.50
2010,09,28,10,42,15.50
2010,09,28,10,43,15.60
2010,09,28,10,44,15.60
2010,09,28,10,45,15.60
2010,09,28,10,46,15.60
2010,09,28,10,47,15.60
2010,09,28,10,48,15.70
2010,09,28,10,49,15.70
2010,09,28,10,50,15.70
2010,09,28,10,51,15.70
2010,09,28,10,52,15.80
2010,09,28,10,53,15.90
2010,09,28,10,54,15.90
2010,09,28,10,55,15.90
2010,09,28,10,56,15.90
2010,09,28,10,57,15.90
2010,09,28,10,58,15.90
2010,09,28,10,59,15.90
2010,09,28,11,00,15.80
2010,09,28,11,01,15.90
2010,09,28,11,02,15.90
2010,09,28,11,03,15.90
2010,09,28,11,04,15.90
2010,09,28,11,05,16.00
2010,09,28,11,06,16.00
2010,09,28,11,07,16.00
2010,09,28,11,08,16.10
2010,09,28,11,09,16.10
2010,09,28,11,10,16.20
2010,09,28,11,11,16.20
2010,09,28,11,12,16.30
2010,09,28,11,13,16.30
2010,09,28,11,14,16.40
2010,09,28,11,15,16.40
2010,09,28,11,16,16.50
2010,09,28,11,17,16.60
2010,09,28,11,18,16.60
2010,09,28,11,19,16.70
2010,09,28,11,20,16.70
2010,09,28,11,21,16.70
2010,09,28,11,22,16.70
2010,09,28,11,23,16.70
2010,09,28,11,24,16.60
2010,09,28,11,25,16.50
2010,09,28,11,26,16.50
2010,09,28,11,27,16.40
2010,09,28,11,28,16.40
2010,09,28,11,29,16.40
2010,09,28,11,30,16.30
2010,09,28,11,31,16.30
2010,09,28,11,32,16.30
2010,09,28,11,33,16.30
2010,09,28,11,34,16.30
2010,09,28,11,35,16.30
2010,09,28,11,36,16.40
2010,09,28,11,37,16.40
2010,09,28,11,38,16.50
2010,09,28,11,39,16.50
2010,09,28,11,40,16.60
2010,09,28,11,41,16.60
2010,09,28,11,42,16.70
2010,09,28,11,43,16.70
2010,09,28,11,44,16.80
2010,09,28,11,45,16.90
2010,09,28,11,46,16.90
2010,09,28,11,47,16.90
2010,09,28,11,48,17.00
2010,09,28,11,49,17.10
2010,09,28,11,50,17.20
2010,09,28,11,51,17.20
2010,09,28,11,52,17.30
2010,09,28,11,53,17.40
2010,09,28,11,54,17.50
2010,09,28,11,55,17.60
2010,09,28,11,56,17.60
2010,09,28,11,57,17.70
2010,09,28,11,58,17.80
2010,09,28,11,59,17.90
2010,09,28,12,00,18.00
2010,09,28,12,01,18.00
2010,09,28,12,02,18.10
2010,09,28,12,03,18.20
2010,09,28,12,04,18.30
2010,09,28,12,05,18.30
2010,09,28,12,06,18.30
2010,09,28,12,07,18.30
2010,09,28,12,08,18.30
2010,09,28,12,09,18.40
2010,09,28,12,10,18.40
2010,09,28,12,11,18.40
2010,09,28,12,12,18.50
2010,09,28,12,13,18.50
2010,09,28,12,14,18.60
2010,09,28,12,15,18.60
2010,09,28,12,16,18.60
2010,09,28,12,17,18.60
2010,09,28,12,18,18.60
2010,09,28,12,19,18.70
2010,09,28,12,20,18.70
2010,09,28,12,21,18.70
2010,09,28,12,22,18.80
2010,09,28,12,23,18.80
2010,09,28,12,24,18.80
2010,09,28,12,25,18.90
2010,09,28,12,26,18.90
2010,09,28,12,27,19.00
2010,09,28,12,28,19.10
2010,09,28,12,29,19.10
2010,09,28,12,30,19.10
2010,09,28,12,31,19.10
2010,09,28,12,32,19.10
2010,09,28,12,33,19.10
2010,09,28,12,34,19.10
2010,09,28,12,35,19.10
2010,09,28,12,36,19.10
2010,09,28,12,37,19.00
2010,09,28,12,38,18.90
2010,09,28,12,39,18.90
2010,09,28,12,40,18.90
2010,09,28,12,41,18.90
2010,09,28,12,42,18.90
2010,09,28,12,43,18.90
2010,09,28,12,44,18.80
2010,09,28,12,45,18.80
2010,09,28,12,46,18.80
2010,09,28,12,47,18.80
2010,09,28,12,48,18.80
2010,09,28,12,49,18.80
2010,09,28,12,50,18.80
2010,09,28,12,51,18.80
2010,09,28,12,52,18.90
2010,09,28,12,53,19.00
2010,09,28,12,54,18.90
2010,09,28,12,55,18.90
2010,09,28,12,56,19.00
2010,09,28,12,57,19.10
2010,09,28,12,58,19.10
2010,09,28,12,59,19.20
2010,09,28,13,00,19.20
2010,09,28,13,01,19.20
2010,09,28,13,02,19.20
2010,09,28,13,03,19.20
2010,09,28,13,04,19.20
2010,09,28,13,05,19.20
2010,09,28,13,06,19.30
2010,09,28,13,07,19.30
2010,09,28,13,08,19.30
2010,09,28,13,09,19.40
2010,09,28,13,10,19.40
2010,09,28,13,11,19.40
2010,09,28,13,12,19.40
2010,09,28,13,13,19.40
2010,09,28,13,14,19.50
2010,09,28,13,15,19.50
2010,09,28,13,16,19.60
2010,09,28,13,17,19.70
2010,09,28,13,18,19.80
2010,09,28,13,19,20.00
2010,09,28,13,20,20.10
2010,09,28,13,21,20.30
2010,09,28,13,22,20.40
2010,09,28,13,23,20.50
2010,09,28,13,24,20.70
2010,09,28,13,25,20.80
2010,09,28,13,26,20.80
2010,09,28,13,27,20.70
2010,09,28,13,28,20.60
2010,09,28,13,29,20.50
2010,09,28,13,30,20.40
2010,09,28,13,31,20.40
2010,09,28,13,32,20.30
2010,09,28,13,33,20.20
2010,09,28,13,34,20.10
2010,09,28,13,35,20.10
2010,09,28,13,36,20.10
2010,09,28,13,37,20.10
2010,09,28,13,38,20.10
2010,09,28,13,39,20.20
2010,09,28,13,40,20.20
2010,09,28,13,41,20.30
2010,09,28,13,42,20.30
2010,09,28,13,43,20.40
2010,09,28,13,44,20.50
2010,09,28,13,45,20.60
2010,09,28,13,46,20.60
2010,09,28,13,47,20.60
2010,09,28,13,48,20.60
2010,09,28,13,49,20.60
2010,09,28,13,50,20.60
2010,09,28,13,51,20.70
2010,09,28,13,52,20.80
2010,09,28,13,53,20.90
2010,09,28,13,54,21.00
2010,09,28,13,55,21.10
2010,09,28,13,56,21.20
2010,09,28,13,57,21.20
2010,09,28,13,58,21.20
2010,09,28,13,59,21.20
2010,09,28,14,00,21.10
2010,09,28,14,01,21.00
2010,09,28,14,02,20.90
2010,09,28,14,03,20.70
2010,09,28,14,04,20.50
2010,09,28,14,05,20.30
2010,09,28,14,06,20.10
2010,09,28,14,07,19.90
2010,09,28,14,08,19.80
2010,09,28,14,09,19.60
2010,09,28,14,10,19.50
2010,09,28,14,11,19.40
2010,09,28,14,12,19.30
2010,09,28,14,13,19.30
2010,09,28,14,14,19.30
2010,09,28,14,15,19.30
2010,09,28,14,16,19.30
2010,09,28,14,17,19.30
2010,09,28,14,18,19.30
2010,09,28,14,19,19.30
2010,09,28,14,20,19.20
2010,09,28,14,21,19.20
2010,09,28,14,22,19.20
2010,09,28,14,23,19.10
2010,09,28,14,24,19.10
2010,09,28,14,25,19.00
2010,09,28,14,26,19.00
2010,09,28,14,27,19.10
2010,09,28,14,28,19.10
2010,09,28,14,29,19.20
2010,09,28,14,30,19.30
2010,09,28,14,31,19.40
2010,09,28,14,32,19.60
2010,09,28,14,33,19.70
2010,09,28,14,34,19.80
2010,09,28,14,35,19.80
2010,09,28,14,36,19.90
2010,09,28,14,37,20.00
2010,09,28,14,38,20.00
2010,09,28,14,39,20.10
2010,09,28,14,40,20.10
2010,09,28,14,41,20.10
2010,09,28,14,42,20.20
2010,09,28,14,43,20.30
2010,09,28,14,44,20.40
2010,09,28,14,45,20.30
2010,09,28,14,46,20.20
2010,09,28,14,47,20.20
2010,09,28,14,48,20.10
2010,09,28,14,49,20.10
2010,09,28,14,50,20.10
2010,09,28,14,51,20.10
2010,09,28,14,52,20.10
2010,09,28,14,53,20.20
2010,09,28,14,54,20.30
2010,09,28,14,55,20.30
2010,09,28,14,56,20.40
2010,09,28,14,57,20.50
2010,09,28,14,58,20.50
2010,09,28,14,59,20.60
2010,09,28,15,00,20.70
2010,09,28,15,01,20.70
2010,09,28,15,02,20.70
2010,09,28,15,03,20.60
2010,09,28,15,04,20.50
2010,09,28,15,05,20.50
2010,09,28,15,06,20.40
2010,09,28,15,07,20.30
2010,09,28,15,08,20.20
2010,09,28,15,09,20.00
2010,09,28,15,10,19.90
2010,09,28,15,11,19.80
2010,09,28,15,12,19.80
2010,09,28,15,13,19.70
2010,09,28,15,14,19.70
2010,09,28,15,15,19.70
2010,09,28,15,16,19.70
2010,09,28,15,17,19.60
2010,09,28,15,18,19.60
2010,09,28,15,19,19.60
2010,09,28,15,20,19.60
2010,09,28,15,21,19.60
2010,09,28,15,22,19.60
2010,09,28,15,23,19.60
2010,09,28,15,24,19.60
2010,09,28,15,25,19.70
2010,09,28,15,26,19.80
2010,09,28,15,27,19.90
2010,09,28,15,28,19.90
2010,09,28,15,29,19.80
2010,09,28,15,30,19.70
2010,09,28,15,31,19.60
2010,09,28,15,32,19.60
2010,09,28,15,33,19.50
2010,09,28,15,34,19.40
2010,09,28,15,35,19.40
2010,09,28,15,36,19.40
2010,09,28,15,37,19.40
2010,09,28,15,38,19.40
2010,09,28,15,39,19.50
2010,09,28,15,40,19.50
2010,09,28,15,41,19.60
2010,09,28,15,42,19.70
2010,09,28,15,43,19.70
2010,09,28,15,44,19.70
2010,09,28,15,45,19.80
2010,09,28,15,46,19.80
2010,09,28,15,47,19.80
2010,09,28,15,48,19.90
2010,09,28,15,49,19.90
2010,09,28,15,50,20.00
2010,09,28,15,51,20.00
2010,09,28,15,52,20.00
2010,09,28,15,53,20.10
2010,09,28,15,54,20.10
2010,09,28,15,55,20.10
2010,09,28,15,56,20.20
2010,09,28,15,57,20.20
2010,09,28,15,58,20.20
2010,09,28,15,59,20.20
2010,09,28,16,00,20.30
2010,09,28,16,01,20.30
2010,09,28,16,02,20.30
2010,09,28,16,03,20.30
2010,09,28,16,04,20.30
2010,09,28,16,05,20.30
2010,09,28,16,06,20.20
2010,09,28,16,07,20.10
2010,09,28,16,08,20.00
2010,09,28,16,09,20.00
2010,09,28,16,10,19.90
2010,09,28,16,11,19.90
2010,09,28,16,12,19.90
2010,09,28,16,13,19.90
2010,09,28,16,14,19.80
2010,09,28,16,15,19.80
2010,09,28,16,16,19.80
2010,09,28,16,17,19.80
2010,09,28,16,18,19.80
2010,09,28,16,19,19.80
2010,09,28,16,20,19.80
2010,09,28,16,21,19.80
2010,09,28,16,22,19.80
2010,09,28,16,23,19.80
2010,09,28,16,24,19.80
2010,09,28,16,25,19.80
2010,09,28,16,26,19.80
2010,09,28,16,27,19.80
2010,09,28,16,28,19.80
2010,09,28,16,29,19.80
2010,09,28,16,30,19.80
2010,09,28,16,31,19.80
2010,09,28,16,32,19.80
2010,09,28,16,33,19.70
2010,09,28,16,34,19.70
2010,09,28,16,35,19.70
2010,09,28,16,36,19.70
2010,09,28,16,37,19.80
2010,09,28,16,38,19.80
2010,09,28,16,39,19.80
2010,09,28,16,40,19.70
2010,09,28,16,41,19.70
2010,09,28,16,42,19.70
2010,09,28,16,43,19.70
2010,09,28,16,44,19.60
2010,09,28,16,45,19.50
2010,09,28,16,46,19.50
2010,09,28,16,47,19.40
2010,09,28,16,48,19.40
2010,09,28,16,49,19.40
2010,09,28,16,50,19.40
2010,09,28,16,51,19.50
2010,09,28,16,52,19.50
2010,09,28,16,53,19.50
2010,09,28,16,54,19.50
2010,09,28,16,55,19.50
2010,09,28,16,56,19.50
2010,09,28,16,57,19.50
2010,09,28,16,58,19.50
2010,09,28,16,59,19.50
2010,09,28,17,00,19.60
2010,09,28,17,01,19.60
2010,09,28,17,02,19.60
2010,09,28,17,03,19.60
2010,09,28,17,04,19.60
2010,09,28,17,05,19.60
2010,09,28,17,06,19.60
2010,09,28,17,07,19.60
2010,09,28,17,08,19.60
2010,09,28,17,09,19.60
2010,09,28,17,10,19.60
2010,09,28,17,11,19.60
2010,09,28,17,12,19.60
2010,09,28,17,13,19.60
2010,09,28,17,14,19.60
2010,09,28,17,15,19.60
2010,09,28,17,16,19.60
2010,09,28,17,17,19.60
2010,09,28,17,18,19.60
2010,09,28,17,19,19.60
2010,09,28,17,20,19.60
2010,09,28,17,21,19.60
2010,09,28,17,22,19.70
2010,09,28,17,23,19.70
2010,09,28,17,24,19.70
2010,09,28,17,25,19.70
2010,09,28,17,26,19.70
2010,09,28,17,27,19.70
2010,09,28,17,28,19.70
2010,09,28,17,29,19.70
2010,09,28,17,30,19.70
2010,09,28,17,31,19.80
2010,09,28,17,32,19.80
2010,09,28,17,33,19.90
2010,09,28,17,34,19.90
2010,09,28,17,35,20.00
2010,09,28,17,36,20.00
2010,09,28,17,37,20.00
2010,09,28,17,38,20.00
2010,09,28,17,39,20.00
2010,09,28,17,40,19.90
2010,09,28,17,41,19.90
2010,09,28,17,42,19.90
2010,09,28,17,43,19.90
2010,09,28,17,44,19.90
2010,09,28,17,45,19.80
2010,09,28,17,46,19.80
2010,09,28,17,47,19.80
2010,09,28,17,48,19.70
2010,09,28,17,49,19.70
2010,09,28,17,50,19.60
2010,09,28,17,51,19.60
2010,09,28,17,52,19.50
2010,09,28,17,53,19.50
2010,09,28,17,54,19.50
2010,09,28,17,55,19.40
2010,09,28,17,56,19.30
2010,09,28,17,57,19.30
2010,09,28,17,58,19.20
2010,09,28,17,59,19.10
2010,09,28,18,00,19.10